Home > Time Zones > World Clock > Weather > China > Wuhan > Past weeks

Flag for China Weather past 2 weeks in Wuhan, Hubei, China

Now
84 °F

Fog.


Feels Like: 98 °F
Forecast: 81 / 96 °F
Wind: 6 mph from Southeast

Location: Wuhan Airport

Current Time: Jul 29, 2014 at 5:23:58 AM

Latest Report: Jul 29, 2014 at 4:00 AM


Visibility: 2 mi

Pressure: 29.62 "Hg

Humidity: 89%

Dew point: 81 °F

Location of WuhanLocation

Historic Weather in Wuhan — Graph

°F

Wuhan temperature yesterday

Maximum temperature yesterday: 95 °F (at 3:00 PM)
Minimum temperature yesterday: 77 °F (at 3:00 AM)
Average temperature yesterday: 86 °F

Past Weeks' High & Low Weather Summary

 TemperatureHumidityPressure
High99 °F (Jul 22, 2:00 PM)100% (Jul 16, 4:00 AM)29.86 "Hg (Jul 16, 4:00 AM)
Low73 °F (Jul 14, 4:00 AM)49% (Jul 27, 2:00 PM)29.45 "Hg (Jul 24, 4:00 PM)
Average84 °F80%29.71 "Hg
* Reported Jul 14 4:00 AM — Jul 29 4:00 AM, Wuhan, Weather by CustomWeather, © 2014

Note: Actual official high and low records may vary slightly from our data, if they occured in-between our weather recording intervals... More about our weather records

Advertising

Wuhan weather history for previous 24 hours

 ConditionsComfort  
Time TempWeatherWind HumidityBarometerVisibility
4:00 AM
Jul 29
84 °FFog.6 mph89%29.62 "Hg2 mi
3:00 AM84 °FFog.3 mph84%29.62 "Hg2 mi
2:00 AM82 °FFog.No wind89%29.62 "Hg2 mi
1:00 AM84 °FFog.1 mph84%29.62 "Hg2 mi
12:00 AM88 °FHaze.3 mph75%29.65 "Hg3 mi
11:00 PM
Jul 28
88 °FHaze.6 mph70%29.65 "Hg3 mi
10:00 PM88 °FHaze.6 mph75%29.65 "Hg3 mi
9:00 PM88 °FHaze.6 mph75%29.65 "Hg2 mi
8:00 PM90 °FHaze.10 mph71%29.62 "Hg2 mi
7:00 PM91 °FHaze.10 mph67%29.59 "Hg2 mi
6:00 PM91 °FHaze.6 mph67%29.59 "Hg3 mi
5:00 PM93 °FHaze.6 mph59%29.59 "Hg3 mi
4:00 PM95 °FPassing clouds.3 mph56%29.62 "Hg4 mi
3:00 PM95 °FPassing clouds.3 mph56%29.65 "Hg4 mi
2:00 PM93 °FHaze.3 mph59%29.65 "Hg2 mi
1:00 PM91 °FHaze.3 mph63%29.68 "Hg2 mi
12:00 PM91 °FScattered clouds.6 mph59%29.71 "Hg2 mi
11:00 AM90 °FScattered clouds.3 mph67%29.71 "Hg1 mi
10:00 AM88 °FHaze.6 mph75%29.71 "Hg2 mi
9:00 AM86 °FFog.6 mph75%29.74 "Hg2 mi
8:00 AM82 °FFog.6 mph84%29.74 "Hg2 mi
7:00 AM79 °FFog.6 mph89%29.71 "Hg2 mi
6:00 AM77 °FFog.3 mph89%29.71 "Hg2 mi
5:00 AM77 °FFog.1 mph89%29.71 "Hg2 mi
Weather by CustomWeather, © 2014

See weather overviewHow to use our weather pages